Hourly Weather Holub'yatyn

Today, 16 April, Friday

Time Temperature Precipitation Wind Pressure Humidity
00:00 +6°C° 0 mm 4 mps 740 mmHg 92%
01:00 +5°C° 0 mm 4 mps 740 mmHg 92%
02:00 +5°C° 0 mm 3 mps 740 mmHg 92%
03:00 +5°C° 0.1 mm 3 mps 740 mmHg 92%
04:00 +5°C° 0.1 mm 3 mps 740 mmHg 92%
05:00 +5°C° 0.1 mm 3 mps 740 mmHg 93%
06:00 +4°C° 0.5 mm 3 mps 740 mmHg 93%
07:00 +4°C° 0.5 mm 3 mps 740 mmHg 93%
08:00 +4°C° 0 mm 3 mps 740 mmHg 94%
09:00 +4°C° 0.9 mm 3 mps 740 mmHg 92%
10:00 +4°C° 0.9 mm 3 mps 740 mmHg 90%
11:00 +5°C° 0.9 mm 3 mps 740 mmHg 88%
12:00 +5°C° 0.2 mm 3 mps 740 mmHg 84%
13:00 +7°C° 0.2 mm 3 mps 741 mmHg 81%
14:00 +6°C° 0.2 mm 4 mps 741 mmHg 77%
15:00 +6°C° 0 mm 4 mps 741 mmHg 77%
16:00 +6°C° 0 mm 4 mps 741 mmHg 77%
17:00 +6°C° 0 mm 4 mps 741 mmHg 77%
18:00 +5°C° 0.1 mm 4 mps 741 mmHg 80%
19:00 +4°C° 0.1 mm 4 mps 742 mmHg 83%
20:00 +4°C° 0.1 mm 4 mps 742 mmHg 86%
21:00 +3°C° 0 mm 4 mps 742 mmHg 89%
22:00 +3°C° 0 mm 4 mps 742 mmHg 91%
23:00 +1°C° 0 mm 4 mps 742 mmHg 94%

Tomorrow, 17 April, Saturday

Time Temperature Precipitation Wind Pressure Humidity
00:00 +1°C° 0.1 mm 4 mps 743 mmHg 94%
01:00 +1°C° 0.1 mm 4 mps 743 mmHg 95%
02:00 +1°C° 0.1 mm 4 mps 743 mmHg 95%
03:00 +1°C° 0.1 mm 4 mps 743 mmHg 95%
04:00 +2°C° 0.1 mm 3 mps 743 mmHg 95%
05:00 +2°C° 0.1 mm 3 mps 743 mmHg 95%
06:00 +2°C° 0.1 mm 3 mps 744 mmHg 95%
07:00 +2°C° 0.1 mm 3 mps 744 mmHg 95%
08:00 +3°C° 0.1 mm 3 mps 744 mmHg 95%
09:00 +3°C° 0.1 mm 3 mps 745 mmHg 94%
10:00 +3°C° 0.1 mm 3 mps 745 mmHg 94%
11:00 +4°C° 0.1 mm 2 mps 745 mmHg 94%
12:00 +5°C° 0.1 mm 2 mps 745 mmHg 92%
13:00 +5°C° 0.1 mm 2 mps 746 mmHg 91%
14:00 +5°C° 0.1 mm 2 mps 746 mmHg 90%
15:00 +6°C° 0 mm 2 mps 746 mmHg 87%
16:00 +6°C° 0 mm 2 mps 746 mmHg 85%
17:00 +6°C° 0 mm 2 mps 746 mmHg 82%
18:00 +6°C° 0 mm 2 mps 746 mmHg 84%
19:00 +6°C° 0 mm 2 mps 746 mmHg 86%
20:00 +5°C° 0 mm 2 mps 746 mmHg 87%
21:00 +5°C° 0 mm 2 mps 746 mmHg 88%
22:00 +5°C° 0 mm 2 mps 746 mmHg 88%
23:00 +5°C° 0 mm 2 mps 746 mmHg 88%

Day after tomorrow, 18 April, Sunday

Time Temperature Precipitation Wind Pressure Humidity
00:00 +5°C° 0 mm 2 mps 745 mmHg 89%
01:00 +4°C° 0 mm 2 mps 745 mmHg 90%
02:00 +3°C° 0 mm 3 mps 745 mmHg 91%
03:00 +2°C° 0 mm 3 mps 745 mmHg 92%
04:00 +2°C° 0 mm 3 mps 745 mmHg 93%
05:00 +1°C° 0 mm 3 mps 745 mmHg 94%
06:00 +3°C° 0 mm 3 mps 744 mmHg 89%
07:00 +4°C° 0 mm 4 mps 744 mmHg 84%
08:00 +5°C° 0 mm 4 mps 744 mmHg 79%
09:00 +7°C° 0 mm 4 mps 744 mmHg 73%
10:00 +9°C° 0 mm 5 mps 744 mmHg 68%
11:00 +10°C° 0 mm 5 mps 743 mmHg 63%
12:00 +10°C° 0.1 mm 5 mps 744 mmHg 67%
13:00 +9°C° 0.1 mm 5 mps 744 mmHg 71%
14:00 +9°C° 0.1 mm 5 mps 744 mmHg 75%
15:00 +8°C° 0 mm 4 mps 744 mmHg 77%
16:00 +8°C° 0 mm 4 mps 744 mmHg 78%
17:00 +7°C° 0 mm 4 mps 744 mmHg 80%
18:00 +8°C° 0 mm 3 mps 744 mmHg 80%
19:00 +7°C° 0 mm 3 mps 744 mmHg 80%
20:00 +6°C° 0 mm 2 mps 744 mmHg 80%
21:00 +6°C° 0 mm 2 mps 744 mmHg 80%
22:00 +7°C° 0 mm 1 mps 744 mmHg 81%
23:00 +6°C° 0 mm 1 mps 744 mmHg 82%

19 April, Monday

Time Temperature Precipitation Wind Pressure Humidity
00:00 +6°C° 0 mm 1 mps 744 mmHg 84%
01:00 +5°C° 0 mm 1 mps 744 mmHg 86%
02:00 +5°C° 0 mm 1 mps 744 mmHg 87%
03:00 +5°C° 0 mm 1 mps 744 mmHg 88%
04:00 +4°C° 0 mm 1 mps 744 mmHg 89%
05:00 +4°C° 0 mm 1 mps 743 mmHg 89%
06:00 +5°C° 0 mm 1 mps 743 mmHg 85%
07:00 +7°C° 0 mm 1 mps 743 mmHg 81%
08:00 +8°C° 0 mm 1 mps 743 mmHg 77%
09:00 +9°C° 0 mm 1 mps 743 mmHg 71%
10:00 +11°C° 0 mm 1 mps 743 mmHg 66%
11:00 +12°C° 0 mm 1 mps 742 mmHg 60%
12:00 +12°C° 0 mm 1 mps 742 mmHg 57%
13:00 +13°C° 0 mm 1 mps 742 mmHg 54%
14:00 +13°C° 0 mm 1 mps 741 mmHg 51%
15:00 +12°C° 0 mm 2 mps 741 mmHg 55%
16:00 +11°C° 0 mm 3 mps 741 mmHg 59%
17:00 +11°C° 0 mm 3 mps 740 mmHg 63%
18:00 +10°C° 0 mm 3 mps 740 mmHg 66%
19:00 +9°C° 0 mm 3 mps 740 mmHg 69%
20:00 +8°C° 0 mm 3 mps 739 mmHg 73%
21:00 +7°C° 0 mm 4 mps 739 mmHg 73%
22:00 +6°C° 0 mm 4 mps 738 mmHg 74%
23:00 +6°C° 0 mm 4 mps 738 mmHg 74%

20 April, Tuesday

Time Temperature Precipitation Wind Pressure Humidity
00:00 +5°C° 0 mm 4 mps 737 mmHg 77%
01:00 +4°C° 0 mm 4 mps 737 mmHg 80%
02:00 +3°C° 0 mm 5 mps 736 mmHg 83%
03:00 +2°C° 0 mm 5 mps 735 mmHg 85%
04:00 +2°C° 0 mm 5 mps 735 mmHg 88%
05:00 +2°C° 0 mm 6 mps 734 mmHg 90%
06:00 +3°C° 0 mm 6 mps 733 mmHg 87%
07:00 +3°C° 0 mm 7 mps 733 mmHg 84%
08:00 +4°C° 0 mm 7 mps 732 mmHg 81%
09:00 +5°C° 0 mm 8 mps 732 mmHg 76%
10:00 +6°C° 0 mm 8 mps 732 mmHg 72%
11:00 +7°C° 0 mm 8 mps 731 mmHg 67%
12:00 +9°C° 0 mm 8 mps 731 mmHg 66%
13:00 +9°C° 0 mm 8 mps 731 mmHg 64%
14:00 +9°C° 0 mm 8 mps 731 mmHg 62%
15:00 +9°C° 0 mm 8 mps 731 mmHg 62%
16:00 +9°C° 0 mm 8 mps 732 mmHg 62%
17:00 +9°C° 0 mm 8 mps 732 mmHg 63%
18:00 +8°C° 0 mm 7 mps 733 mmHg 63%
19:00 +8°C° 0 mm 6 mps 733 mmHg 63%
20:00 +7°C° 0 mm 6 mps 734 mmHg 63%
21:00 +7°C° 0 mm 6 mps 734 mmHg 69%
22:00 +5°C° 0 mm 6 mps 735 mmHg 74%
23:00 +4°C° 0 mm 6 mps 735 mmHg 80%

21 April, Wednesday

Time Temperature Precipitation Wind Pressure Humidity
00:00 +4°C° 0 mm 6 mps 735 mmHg 82%
01:00 +3°C° 0 mm 6 mps 736 mmHg 84%
02:00 +3°C° 0 mm 6 mps 736 mmHg 86%
03:00 +3°C° 0 mm 6 mps 737 mmHg 87%
04:00 +3°C° 0 mm 6 mps 737 mmHg 88%
05:00 +3°C° 0 mm 6 mps 737 mmHg 88%
06:00 +4°C° 0 mm 6 mps 738 mmHg 83%
07:00 +5°C° 0 mm 7 mps 738 mmHg 79%
08:00 +6°C° 0 mm 7 mps 739 mmHg 74%
09:00 +8°C° 0 mm 7 mps 739 mmHg 68%
10:00 +9°C° 0 mm 7 mps 739 mmHg 62%
11:00 +10°C° 0 mm 7 mps 740 mmHg 56%
12:00 +10°C° 0.1 mm 7 mps 740 mmHg 56%
13:00 +11°C° 0.1 mm 7 mps 740 mmHg 56%
14:00 +11°C° 0.1 mm 6 mps 741 mmHg 56%
15:00 +11°C° 0 mm 6 mps 741 mmHg 57%
16:00 +12°C° 0 mm 5 mps 741 mmHg 58%
17:00 +12°C° 0 mm 4 mps 742 mmHg 59%
18:00 +11°C° 0 mm 4 mps 742 mmHg 64%
19:00 +9°C° 0 mm 3 mps 743 mmHg 69%
20:00 +8°C° 0 mm 2 mps 743 mmHg 73%
21:00 +8°C° 0 mm 3 mps 743 mmHg 75%
22:00 +7°C° 0 mm 3 mps 744 mmHg 76%
23:00 +7°C° 0 mm 3 mps 744 mmHg 77%
Show more